Weather History for Montpelier, VT

Change the Weather History Date:

Thursday, January 31, 2013

  Actual Average Record
Temperature  
Mean Temperature 35 °F 17 °F  
Max Temperature 49 °F 27 °F 56 °F (1988)
Min Temperature 21 °F 7 °F -15 °F (1951)
Degree Days  
Heating Degree Days 30 48  
Month to date heating degree days 1382 1500  
Since 1 July heating degree days 4345 4645  
Moisture  
Dew Point 30 °F    
Average Humidity 73    
Maximum Humidity 100    
Minimum Humidity 45    
Precipitation  
Precipitation 0.43 in 0.09 in 1.08 in (1969)
Month to date precipitation 0.95 2.45  
Year to date precipitation 0.95 2.45  
Sea Level Pressure  
Sea Level Pressure 29.16 in    
Wind  
Wind Speed 15 mph (WSW)    
Max Wind Speed 30 mph    
Max Gust Speed 47 mph    
Visibility 9 miles    
Events Rain    
T = Trace of Precipitation, MM = Missing Value Source: NWS Daily Summary

Daily Weather History Graph

Daily Weather History Graph

Search for Another Location

Airport:

Trip Planner

Search our weather history database for the weather conditions in past years. The results will help you decide how hot, cold, wet, or windy it might be!

Date:

Astronomy

Jan. 31, 2013 Rise Set
Actual Time 7:08 AM EST 4:59 PM EST
Civil Twilight 6:38 AM EST 5:29 PM EST
Nautical Twilight 6:03 AM EST 6:04 PM EST
Astronomical Twilight 5:29 AM EST 6:38 PM EST
Moon 10:12 PM EST (1/31) 8:54 AM EST (1/31)
Length of Visible Light 10h 51m
Length of Day
9h 50m
Waning Gibbous, 80% of the Moon is Illuminated
Jan 31
Waning Gibbous
Feb 3
Last Quarter
Feb 10
New
Feb 17
First Quarter
Feb 25
Full

Hourly Weather History & Observations

Time (EST) Temp. Windchill Dew Point Humidity Pressure Visibility Wind Dir Wind Speed Gust Speed Precip Events Conditions
12:49 AM 46.4 °F 44.3 °F 46.4 °F 100% 29.29 in 8.0 mi SSW 4.6 mph - 0.03 in Rain Light Rain
12:51 AM 46.0 °F 43.9 °F 46.0 °F 100% 29.31 in 8.0 mi South 4.6 mph - 0.03 in Rain Light Rain
1:51 AM 46.0 °F 39.0 °F 45.0 °F 96% 29.22 in 10.0 mi South 17.3 mph - 0.02 in Rain Light Rain
2:51 AM 46.9 °F - 46.0 °F 97% 29.13 in 10.0 mi South 10.4 mph - 0.03 in Rain Light Rain
3:51 AM 46.9 °F - 46.9 °F 100% 29.07 in 4.0 mi South 9.2 mph - 0.06 in Rain Light Rain
4:20 AM 46.4 °F 42.9 °F 46.4 °F 100% 29.01 in 5.0 mi South 6.9 mph - 0.02 in Rain Light Rain
4:51 AM 48.0 °F - 46.9 °F 96% 28.99 in 6.0 mi SSW 8.1 mph - 0.05 in Rain Light Rain
5:51 AM 48.0 °F - 46.9 °F 96% 28.95 in 5.0 mi SSW 8.1 mph - 0.09 in Rain Rain
6:51 AM 48.0 °F - 48.0 °F 100% 28.89 in 9.0 mi South 10.4 mph - 0.07 in Rain Light Rain
7:36 AM 48.2 °F - 46.4 °F 93% 28.87 in 2.5 mi WSW 10.4 mph 17.3 mph 0.04 in Rain Rain
7:41 AM 48.2 °F - 46.4 °F 93% 28.87 in 3.0 mi SW 8.1 mph 17.3 mph 0.04 in Rain Rain
7:51 AM 48.0 °F - 46.9 °F 96% 28.87 in 6.0 mi SSW 16.1 mph 26.5 mph 0.05 in Rain Light Rain
8:30 AM 42.8 °F 37.0 °F 39.2 °F 87% 28.93 in 10.0 mi WSW 10.4 mph 23.0 mph 0.01 in Rain Light Rain
8:51 AM 42.1 °F 34.2 °F 37.0 °F 82% 28.98 in 10.0 mi WSW 16.1 mph 28.8 mph 0.01 in Rain Light Rain
9:27 AM 39.2 °F 30.2 °F 33.8 °F 81% 28.99 in 9.0 mi WSW 17.3 mph 27.6 mph 0.01 in Rain Light Rain
9:51 AM 37.0 °F 29.8 °F 34.0 °F 89% 29.03 in 10.0 mi West 10.4 mph 17.3 mph 0.03 in Rain Light Rain
10:12 AM 37.4 °F 28.5 °F 32.0 °F 81% 29.02 in 10.0 mi WSW 15.0 mph 26.5 mph 0.00 in   Overcast
10:51 AM 37.9 °F 29.6 °F 28.0 °F 68% 29.07 in 10.0 mi WSW 13.8 mph 35.7 mph 0.00 in   Overcast
11:51 AM 37.0 °F 25.9 °F 23.0 °F 57% 29.11 in 10.0 mi WSW 23.0 mph 40.3 mph N/A   Clear
12:51 PM 36.0 °F 26.0 °F 19.0 °F 50% 29.14 in 10.0 mi WSW 17.3 mph 32.2 mph N/A   Overcast
1:51 PM 33.1 °F 21.2 °F 18.0 °F 54% 29.17 in 10.0 mi West 20.7 mph 36.8 mph N/A   Scattered Clouds
2:51 PM 32.0 °F 18.6 °F 14.0 °F 48% 29.24 in 10.0 mi WSW 25.3 mph 36.8 mph N/A   Overcast
3:51 PM 30.0 °F 16.3 °F 12.9 °F 49% 29.29 in 10.0 mi West 24.2 mph 43.7 mph N/A   Overcast
4:51 PM 28.9 °F 16.9 °F 12.0 °F 49% 29.31 in 10.0 mi West 17.3 mph 31.1 mph N/A   Overcast
5:51 PM 28.0 °F 16.1 °F 10.9 °F 49% 29.36 in 10.0 mi WSW 16.1 mph 27.6 mph N/A   Overcast
6:51 PM 27.0 °F 17.3 °F 12.0 °F 53% 29.40 in 10.0 mi West 10.4 mph 17.3 mph N/A   Overcast
7:51 PM 26.1 °F 13.1 °F 12.0 °F 55% 29.42 in 10.0 mi West 17.3 mph 25.3 mph N/A   Overcast
8:51 PM 24.1 °F 10.1 °F 8.1 °F 51% 29.46 in 10.0 mi WNW 18.4 mph 32.2 mph 0.00 in   Overcast
9:51 PM 23.0 °F 7.2 °F 6.1 °F 48% 29.49 in 10.0 mi WNW 23.0 mph 40.3 mph N/A   Overcast
10:51 PM 21.9 °F 8.2 °F 5.0 °F 48% 29.52 in 10.0 mi West 16.1 mph 31.1 mph 0.00 in   Overcast
11:51 PM 21.0 °F 8.6 °F 5.0 °F 50% 29.53 in 10.0 mi West 12.7 mph 21.9 mph N/A   Overcast